Flag for Spain Weather past 2 weeks in Huelva, Spain

Now
81 °F

Passing clouds.


Feels Like: 81 °F
Forecast: 66 / 88 °F
Wind: 10 mph from East

Location: Rota Airport

Current Time: Oct 1, 2014 at 8:49:20 PM

Latest Report: Oct 1, 2014 at 8:00 PM


Visibility: N/A

Pressure: 30.04 "Hg

Humidity: 48%

Dew point: 59 °F

Location of HuelvaLocation

Historic Weather in Huelva — Graph

°F

Huelva temperature yesterday

Maximum temperature yesterday: 84 °F (at 3:00 PM)
Minimum temperature yesterday: 63 °F (at 7:00 AM)
Average temperature yesterday: 73 °F

Past Weeks' High & Low Weather Summary

 TemperatureHumidityPressure
High86 °F (Oct 1, 4:00 PM)94% (Sep 17, 6:00 AM)30.18 "Hg (Sep 17, 6:00 AM)
Low63 °F (Sep 23, 8:00 AM)38% (Oct 1, 4:00 PM)29.77 "Hg (Sep 17, 5:00 AM)
Average72 °F76%30.01 "Hg
* Reported Sep 16 7:00 PM — Oct 1 7:00 PM, Huelva, Weather by CustomWeather, © 2014

Note: Actual official high and low records may vary slightly from our data, if they occured in-between our weather recording intervals... More about our weather records

Advertising

Huelva weather history for previous 24 hours

 ConditionsComfort  
Time TempWeatherWind HumidityBarometerVisibility
7:00 PM
Oct 1
84 °FSunny.12 mph43%30.04 "Hg10 mi
6:00 PM84 °FSunny.9 mph40%30.04 "Hg10 mi
5:00 PM84 °FSunny.12 mph43%30.04 "Hg10 mi
4:00 PM86 °FSunny.16 mph38%30.07 "Hg10 mi
3:00 PM84 °FPassing clouds.22 mph43%30.04 "HgN/A
2:00 PM82 °FPassing clouds.15 mph48%30.07 "HgN/A
1:00 PM82 °FPassing clouds.10 mph45%30.09 "HgN/A
12:00 PM81 °FSunny.21 mph54%30.09 "Hg10 mi
11:00 AM79 °FSunny.21 mph58%30.09 "Hg10 mi
10:00 AM75 °FPassing clouds.8 mph65%30.09 "HgN/A
9:00 AM73 °FClear.10 mph69%30.07 "Hg10 mi
8:00 AM72 °FPassing clouds.6 mph69%30.07 "HgN/A
7:00 AM72 °FPassing clouds.6 mph69%30.04 "HgN/A
6:00 AM70 °FPassing clouds.5 mph78%30.04 "HgN/A
5:00 AM72 °FClear.9 mph73%30.07 "Hg10 mi
4:00 AM70 °FClear.3 mph78%30.07 "Hg10 mi
3:00 AM72 °FClear.3 mph73%30.07 "Hg10 mi
2:00 AM72 °FClear.3 mph73%30.07 "Hg10 mi
1:00 AM75 °FClear.12 mph65%30.07 "Hg10 mi
12:00 AM75 °FClear.16 mph69%30.07 "Hg10 mi
11:00 PM
Sep 30
75 °FPassing clouds.6 mph65%30.09 "HgN/A
10:00 PM77 °FPassing clouds.3 mph57%30.09 "HgN/A
9:00 PM77 °FPartly sunny.2 mph57%30.07 "HgN/A
8:00 PM79 °FPartly sunny.3 mph61%30.07 "HgN/A
Weather by CustomWeather, © 2014

See weather overviewHow to use our weather pages